Weather History for PABL - November, 2012

Change the Weather History Date:

Saturday, November 17, 2012

  Actual Average (PASK) Record (PASK)
Temperature  
Mean Temperature -12 °F -  
Max Temperature -4 °F 13 °F 33 °F (2010)
Min Temperature -20 °F 4 °F -16 °F (2008)
Degree Days  
Heating Degree Days 77    
Moisture  
Dew Point -19 °F    
Average Humidity 76    
Maximum Humidity 100    
Minimum Humidity 32    
Precipitation  
Precipitation 0.00 in - - ()
Sea Level Pressure  
Sea Level Pressure 30.11 in    
Wind  
Wind Speed 1 mph (NW)    
Max Wind Speed 10 mph    
Max Gust Speed -    
Visibility 10 miles    
Events      
Averages and records for this station are not official NWS values.
T = Trace of Precipitation, MM = Missing Value Source: NWS Daily Summary

Daily Weather History Graph

Daily Weather History Graph

Search for Another Location

Airport or City:

Trip Planner

Search our weather history database for the weather conditions in past years. The results will help you decide how hot, cold, wet, or windy it might be!

Date:

Astronomy

Nov. 17, 2012 Rise Set
Actual Time 10:42 AM AKST 4:16 PM AKST
Civil Twilight 9:32 AM AKST 5:26 PM AKST
Nautical Twilight 8:25 AM AKST 6:33 PM AKST
Astronomical Twilight 7:24 AM AKST 7:33 PM AKST
Moon 2:28 PM AKST (11/17) 8:54 PM AKST (11/17)
Length of Visible Light 7h 53m
Length of Day
5h 34m
Waxing Crescent, 21% of the Moon is Illuminated
Nov 17
Waxing Crescent
Nov 20
First Quarter
Nov 28
Full
Dec 6
Last Quarter
Dec 12
New

Hourly Weather History & Observations

Time (AKST) Temp. Windchill Dew Point Humidity Pressure Visibility Wind Dir Wind Speed Gust Speed Precip Events Conditions
12:16 AM -16.6 °F - -22.0 °F 76% 30.24 in 10.0 mi Calm Calm - N/A   Clear
12:36 AM -16.6 °F - -23.8 °F 70% 30.24 in 10.0 mi Calm Calm - N/A   Clear
12:56 AM -16.6 °F - -23.8 °F 70% 30.24 in 10.0 mi Calm Calm - N/A   Clear
1:16 AM -16.6 °F - -22.0 °F 76% 30.23 in 10.0 mi Calm Calm - N/A   Clear
1:36 AM -20.2 °F - -27.4 °F 69% 30.23 in 10.0 mi Calm Calm - N/A   Clear
1:56 AM -18.4 °F - -23.8 °F 76% 30.23 in 10.0 mi Calm Calm - N/A   Clear
2:16 AM -18.4 °F - -23.8 °F 76% 30.23 in 10.0 mi Calm Calm - N/A   Clear
2:36 AM -18.4 °F - -23.8 °F 76% 30.22 in 10.0 mi Calm Calm - N/A   Clear
2:56 AM -20.2 °F - -25.6 °F 76% 30.22 in 10.0 mi Calm Calm - N/A   Clear
3:16 AM -20.2 °F - -29.2 °F 63% 30.22 in 10.0 mi Calm Calm - N/A   Clear
3:36 AM -18.4 °F - -18.4 °F 100% 30.22 in 10.0 mi Calm Calm - N/A   Clear
3:56 AM -18.4 °F - -29.2 °F 58% 30.22 in 10.0 mi Calm Calm - N/A   Clear
4:16 AM -18.4 °F - -27.4 °F 63% 30.21 in 10.0 mi Calm Calm - N/A   Clear
4:36 AM -18.4 °F - -18.4 °F 100% 30.21 in 10.0 mi Calm Calm - N/A   Clear
4:56 AM -18.4 °F - -29.2 °F 58% 30.21 in 10.0 mi Calm Calm - N/A   Clear
5:16 AM -20.2 °F - -25.6 °F 76% 30.20 in 10.0 mi Calm Calm - N/A   Clear
5:36 AM -20.2 °F - -25.6 °F 76% 30.19 in 10.0 mi Calm Calm - N/A   Clear
5:56 AM -20.2 °F - -23.8 °F 83% 30.19 in 5.0 mi Calm Calm - N/A   Clear
6:16 AM -20.2 °F - -27.4 °F 69% 30.18 in 10.0 mi Calm Calm - N/A   Clear
6:36 AM -20.2 °F - -23.8 °F 83% 30.18 in 10.0 mi Calm Calm - N/A   Clear
6:56 AM -20.2 °F - -29.2 °F 63% 30.18 in 10.0 mi Calm Calm - N/A   Clear
7:16 AM -20.2 °F - -25.6 °F 76% 30.18 in 10.0 mi Calm Calm - N/A   Clear
7:36 AM -20.2 °F - -20.2 °F 100% 30.17 in 10.0 mi Calm Calm - N/A   Clear
7:56 AM -20.2 °F - - N/A% 30.17 in 10.0 mi Calm Calm - N/A   Clear
8:16 AM -20.2 °F - -27.4 °F 69% 30.16 in 10.0 mi Calm Calm - N/A   Clear
8:36 AM -20.2 °F - -25.6 °F 76% 30.16 in 10.0 mi Calm Calm - N/A   Clear
8:56 AM -20.2 °F - -23.8 °F 83% 30.15 in 10.0 mi Calm Calm - N/A   Clear
9:16 AM -20.2 °F - - N/A% 30.15 in 10.0 mi Calm Calm - N/A   Clear
9:36 AM -20.2 °F - - N/A% 30.14 in 10.0 mi Calm Calm - N/A   Clear
9:56 AM -20.2 °F - -23.8 °F 83% 30.14 in 10.0 mi Calm Calm - N/A   Clear
10:16 AM -20.2 °F - -27.4 °F 69% 30.14 in 10.0 mi Calm Calm - N/A   Clear
10:36 AM - - - N/A% 30.13 in 7.0 mi Calm Calm - N/A   Clear
10:56 AM -20.2 °F - -22.0 °F 91% 30.12 in 2.5 mi Calm Calm - N/A   Clear
11:16 AM -20.2 °F - - N/A% 30.12 in 10.0 mi Calm Calm - N/A   Clear
11:36 AM -20.2 °F - - N/A% 30.12 in 10.0 mi Calm Calm - N/A   Clear
11:56 AM -20.2 °F - -25.6 °F 76% 30.11 in 10.0 mi Calm Calm - N/A   Clear
12:16 PM -18.4 °F -28.9 °F - N/A% 30.11 in 10.0 mi SSE 3.5 mph - N/A   Clear
12:36 PM -16.6 °F - -29.2 °F 53% 30.10 in 10.0 mi Calm Calm - N/A   Clear
12:56 PM -14.8 °F - -16.6 °F 92% 30.10 in 10.0 mi Calm Calm - N/A   Clear
1:16 PM -14.8 °F - - N/A% 30.09 in 10.0 mi Calm Calm - N/A   Clear
1:36 PM -13.0 °F - -27.4 °F 49% 30.09 in 10.0 mi Calm Calm - N/A   Clear
1:56 PM - - - N/A% 30.08 in 10.0 mi Calm Calm - N/A   Clear
2:16 PM -11.2 °F - -23.8 °F 54% 30.07 in 10.0 mi Calm Calm - N/A   Clear
2:36 PM -7.6 °F -23.4 °F - N/A% 30.07 in 10.0 mi NW 8.1 mph - N/A   Clear
2:56 PM -5.8 °F -22.4 °F -29.2 °F 32% 30.05 in 10.0 mi NW 9.2 mph - N/A   Clear
3:16 PM -4.0 °F -20.2 °F -4.0 °F 100% 30.05 in 10.0 mi NW 9.2 mph - N/A   Clear
3:36 PM -5.8 °F -23.4 °F -16.6 °F 60% 30.04 in 10.0 mi NW 10.4 mph - N/A   Clear
3:56 PM -5.8 °F -22.4 °F -5.8 °F 100% 30.04 in 10.0 mi NW 9.2 mph - N/A   Clear
4:16 PM -5.8 °F -23.4 °F -16.6 °F 60% 30.04 in 10.0 mi NW 10.4 mph - N/A   Clear
4:36 PM -5.8 °F -22.4 °F -9.4 °F 84% 30.05 in 10.0 mi NNW 9.2 mph - N/A   Clear
4:56 PM -5.8 °F -18.4 °F -11.2 °F 77% 30.04 in 10.0 mi NW 5.8 mph - N/A   Clear
5:16 PM -5.8 °F - -14.8 °F 65% 30.04 in 10.0 mi Calm Calm - N/A   Clear
5:36 PM -5.8 °F - -7.6 °F 92% 30.03 in 10.0 mi Calm Calm - N/A   Clear
5:56 PM -5.8 °F - -11.2 °F 77% 30.03 in 10.0 mi Calm Calm - N/A   Clear
6:16 PM -5.8 °F -14.5 °F -11.2 °F 77% 30.02 in 10.0 mi North 3.5 mph - N/A   Clear
6:36 PM -7.6 °F -20.6 °F -16.6 °F 65% 30.02 in 10.0 mi North 5.8 mph - N/A   Clear
6:56 PM -5.8 °F -22.4 °F -5.8 °F 100% 30.02 in 10.0 mi NNW 9.2 mph - N/A   Clear
7:16 PM -5.8 °F -16.7 °F -25.6 °F 38% 30.02 in 10.0 mi North 4.6 mph - N/A   Clear
7:36 PM -5.8 °F -22.4 °F -7.6 °F 92% 30.01 in 10.0 mi NNW 9.2 mph - N/A   Clear
7:56 PM -5.8 °F -19.9 °F -29.2 °F 32% 30.02 in 10.0 mi North 6.9 mph - N/A   Clear
8:16 PM -5.8 °F -16.7 °F -14.8 °F 65% 30.02 in 10.0 mi NE 4.6 mph - N/A   Clear
8:36 PM -5.8 °F -23.4 °F -11.2 °F 77% 30.00 in 10.0 mi North 10.4 mph - N/A   Clear
8:56 PM -9.4 °F -24.3 °F -9.4 °F 100% 30.00 in 10.0 mi West 6.9 mph - N/A   Clear
9:16 PM -7.6 °F -20.6 °F -9.4 °F 92% 30.00 in 10.0 mi SW 5.8 mph - N/A   Clear
9:36 PM -5.8 °F -14.5 °F -5.8 °F 100% 29.99 in 10.0 mi WSW 3.5 mph - N/A   Clear
9:56 PM -5.8 °F - -9.4 °F 84% 29.99 in 10.0 mi Calm Calm - N/A   Clear
10:16 PM -5.8 °F - -9.4 °F 84% 29.99 in 10.0 mi Calm Calm - N/A   Clear
10:36 PM -5.8 °F -16.7 °F -7.6 °F 92% 29.99 in 10.0 mi WNW 4.6 mph - N/A   Clear
10:56 PM -5.8 °F -18.4 °F -14.8 °F 65% 29.99 in 10.0 mi West 5.8 mph - N/A   Clear
11:16 PM -5.8 °F -14.5 °F -5.8 °F 100% 29.99 in 10.0 mi NW 3.5 mph - N/A   Clear
11:36 PM -7.6 °F -23.4 °F -14.8 °F 71% 29.99 in 10.0 mi NNW 8.1 mph - N/A   Clear
11:56 PM -7.6 °F -18.8 °F -9.4 °F 92% 29.99 in 10.0 mi North 4.6 mph - N/A   Clear